{"data":{"norad_id":69631,"epoch":"2026-07-08T15:11:11.762592Z","epoch_age_seconds":6412200,"freshness":"OLD","line1":"1 69631U 26128F   26189.63277503  .00215091  00000+0  16940-2 0  9992","line2":"2 69631  54.5236 202.7856 0061129  23.2350 337.1427 15.67836924  4536","mean_motion":15.67836924,"eccentricity":0.0061129,"inclination_deg":54.5236,"raan_deg":202.7856,"arg_perigee_deg":23.235,"mean_anomaly_deg":337.1427,"bstar":0.001694,"rev_number":453,"period_min":91.846286942021,"perigee_km":323.87142730583,"apogee_km":406.31279779002,"semimajor_km":6743.2291125479,"source":"CELESTRAK","updated_at":"2026-07-09T09:01:40.759951Z"}}